Location: Red Deer
(52.2681°N, 113.8112°W)
Time: 20:45:05
(UTC-07:00)

BlueWalker 3 - Pass Details

Date: 02 December 2022
Orbit: 499 x 517 km, 53.2° (Epoch: 05 February)

Event Time Altitude Azimuth Distance (km) Brightness Sun altitude
Rises 16:56:40 0° 250° (WSW) 2,627 7.8 -4.8°
Reaches altitude 10° 16:58:52 10° 249° (WSW) 1,738 6.5 -5.1°
Drops below altitude 10° 17:06:43 10° 77° (ENE) 1,730 4.0 -6.2°
Enters shadow 17:07:18 - 76° (ENE) 1,964 4.3 -6.2°
Exits shadow 17:42:40 -72° 82° (E) 12,664 8.9 -11.1°
Maximum altitude 18:41:34 77° 3° (N) 528 1.9 -19.8°
